Location: Cucq
(50.4773°N, 1.6202°E)
Time: 05:03:57
(UTC+00:00)

Meteor 2-5 Rocket - Pass Details

Date: 07 August 2020
Orbit: 832 x 912 km, 81.2° (Epoch: 23 September)

Event Time Altitude Azimuth Distance (km) Brightness Sun altitude
Rises 01:59:46 0° 346° (NNW) 3,463 7.6 -18.2°
Reaches altitude 10° 02:02:14 10° 345° (NNW) 2,510 6.8 -18.0°
Maximum altitude 02:07:55 78° 261° (W) 874 3.6 -17.5°
Enters shadow 02:11:41 21° 178° (S) 1,786 4.9 -17.2°
